| time (UTC) | temp F | wind direction | speed MPH | gust MPH | rain 1hr in | rain 24hr in | rain mn in | humidity % | barometer mb |
| 20260901003705 | 70 | 332 | 1.0 | 3.0 | 0.00 | 0.00 | 0.00 | 59 | 1007.1 |
| 20260901003204 | 70 | 32 | 1.0 | 2.0 | 0.00 | 0.00 | 0.00 | 59 | 1007.1 |
| 20260901000205 | 71 | 288 | 1.0 | 3.0 | 0.00 | 0.00 | 0.00 | 57 | 1007.2 |
| 20260831235204 | 71 | 10 | 1.0 | 6.0 | 0.00 | 0.00 | 0.00 | 57 | 1007.3 |
| 20260831233704 | 71 | 240 | 1.0 | 2.0 | 0.00 | 0.00 | 0.00 | 57 | 1007.4 |
| 20260831233204 | 71 | 339 | 1.0 | 2.0 | 0.00 | 0.00 | 0.00 | 59 | 1007.5 |
| 20260831232704 | 71 | 107 | 1.0 | 2.0 | 0.00 | 0.00 | 0.00 | 60 | 1007.6 |
| 20260831232204 | 71 | 177 | 0.0 | 2.0 | 0.00 | 0.00 | 0.00 | 61 | 1007.5 |
| 20260831231704 | 71 | 40 | 1.0 | 3.0 | 0.00 | 0.00 | 0.00 | 60 | 1007.7 |
| 20260831225704 | 71 | 154 | 1.0 | 3.0 | 0.00 | 0.00 | 0.00 | 57 | 1007.8 |
| 20260831225204 | 70 | 313 | 1.0 | 3.0 | 0.00 | 0.00 | 0.00 | 61 | 1007.9 |
| 20260831222204 | 71 | 326 | 1.0 | 2.0 | 0.00 | 0.00 | 0.00 | 59 | 1008.2 |
| 20260831220204 | 71 | 331 | 1.0 | 3.0 | 0.00 | 0.00 | 0.00 | 59 | 1008.4 |
| 20260831215204 | 71 | 330 | 1.0 | 2.0 | 0.00 | 0.00 | 0.00 | 59 | 1008.5 |
| 20260831214704 | 71 | 331 | 1.0 | 3.0 | 0.00 | 0.00 | 0.00 | 58 | 1008.6 |
| 20260831214204 | 71 | 302 | 1.0 | 2.0 | 0.00 | 0.00 | 0.00 | 58 | 1008.7 |
| 20260831213204 | 71 | 321 | 1.0 | 2.0 | 0.00 | 0.00 | 0.00 | 59 | 1008.8 |
| 20260831212204 | 71 | 166 | 1.0 | 5.0 | 0.00 | 0.00 | 0.00 | 61 | 1008.9 |
| 20260831210704 | 71 | 313 | 1.0 | 2.0 | 0.00 | 0.00 | 0.00 | 59 | 1009.2 |
| 20260831210204 | 71 | 302 | 1.0 | 3.0 | 0.00 | 0.00 | 0.00 | 59 | 1009.3 |
| 20260831205704 | 71 | 95 | 1.0 | 3.0 | 0.00 | 0.00 | 0.00 | 58 | 1009.2 |
| 20260831204704 | 72 | 325 | 1.0 | 2.0 | 0.00 | 0.00 | 0.00 | 59 | 1009.3 |
| 20260831204204 | 72 | 176 | 1.0 | 3.0 | 0.00 | 0.00 | 0.00 | 58 | 1009.4 |
| 20260831203705 | 72 | 311 | 0.0 | 3.0 | 0.00 | 0.00 | 0.00 | 58 | 1009.4 |
| 20260831202704 | 73 | 298 | 1.0 | 2.0 | 0.00 | 0.00 | 0.00 | 58 | 1009.5 |
| 20260831202204 | 72 | 316 | 1.0 | 2.0 | 0.00 | 0.00 | 0.00 | 58 | 1009.6 |
| 20260831201204 | 72 | 328 | 1.0 | 2.0 | 0.00 | 0.00 | 0.00 | 59 | 1009.7 |
| 20260831194204 | 73 | 347 | 1.0 | 2.0 | 0.00 | 0.00 | 0.00 | 59 | 1010.1 |
| 20260831193704 | 72 | 280 | 1.0 | 3.0 | 0.00 | 0.00 | 0.00 | 60 | 1010.1 |
| 20260831193204 | 72 | 321 | 1.0 | 2.0 | 0.00 | 0.00 | 0.00 | 61 | 1010.2 |
| 20260831192205 | 71 | 325 | 1.0 | 2.0 | 0.00 | 0.00 | 0.00 | 62 | 1010.4 |
| 20260831191204 | 69 | 307 | 1.0 | 3.0 | 0.00 | 0.00 | 0.00 | 64 | 1010.6 |
| 20260831185704 | 68 | 319 | 1.0 | 2.0 | 0.00 | 0.00 | 0.00 | 66 | 1010.7 |
| 20260831185204 | 68 | 190 | 1.0 | 2.0 | 0.00 | 0.00 | 0.00 | 66 | 1010.7 |
| 20260831184204 | 66 | 244 | 0.0 | 2.0 | 0.00 | 0.00 | 0.00 | 69 | 1010.9 |
| 20260831181704 | 64 | 301 | 1.0 | 2.0 | 0.00 | 0.00 | 0.00 | 76 | 1011.2 |
| 20260831181204 | 64 | 208 | 0.0 | 2.0 | 0.00 | 0.00 | 0.00 | 75 | 1011.3 |
| 20260831180204 | 64 | 329 | 1.0 | 2.0 | 0.00 | 0.00 | 0.00 | 77 | 1011.3 |
| 20260831175704 | 63 | 101 | 0.0 | 2.0 | 0.00 | 0.00 | 0.00 | 77 | 1011.5 |
| 20260831175204 | 63 | 333 | 0.0 | 2.0 | 0.00 | 0.00 | 0.00 | 78 | 1011.5 |
| 20260831174204 | 62 | 26 | 0.0 | 2.0 | 0.00 | 0.00 | 0.00 | 78 | 1011.7 |
| 20260831173704 | 62 | 242 | 0.0 | 2.0 | 0.00 | 0.00 | 0.00 | 81 | 1011.7 |
| 20260831173204 | 62 | 286 | 1.0 | 2.0 | 0.00 | 0.00 | 0.00 | 80 | 1011.7 |
| 20260831171204 | 61 | 352 | 1.0 | 2.0 | 0.00 | 0.00 | 0.00 | 82 | 1011.8 |
| 20260831170704 | 61 | 239 | 1.0 | 2.0 | 0.00 | 0.00 | 0.00 | 83 | 1011.8 |
| 20260831170204 | 60 | 292 | 1.0 | 3.0 | 0.00 | 0.00 | 0.00 | 83 | 1011.9 |
| 20260831165704 | 60 | 265 | 1.0 | 3.0 | 0.00 | 0.00 | 0.00 | 84 | 1011.9 |
| 20260831165204 | 60 | 331 | 0.0 | 2.0 | 0.00 | 0.00 | 0.00 | 86 | 1011.9 |
| 20260831164204 | 59 | 278 | 0.0 | 2.0 | 0.00 | 0.00 | 0.00 | 86 | 1012.0 |
| 20260831163704 | 59 | 79 | 0.0 | 2.0 | 0.00 | 0.00 | 0.00 | 87 | 1012.0 |
| 20260831162204 | 58 | 101 | 1.0 | 2.0 | 0.00 | 0.00 | 0.00 | 88 | 1012.2 |
| 20260831160704 | 58 | 286 | 1.0 | 2.0 | 0.00 | 0.00 | 0.00 | 90 | 1012.2 |
| 20260831160204 | 57 | 34 | 1.0 | 5.0 | 0.00 | 0.00 | 0.00 | 92 | 1012.2 |
| 20260831154704 | 57 | 312 | 0.0 | 1.0 | 0.00 | 0.00 | 0.00 | 94 | 1012.5 |
| 20260831153704 | 56 | 312 | 0.0 | 2.0 | 0.00 | 0.00 | 0.00 | 94 | 1012.4 |
| 20260831152704 | 56 | 286 | 0.0 | 2.0 | 0.00 | 0.00 | 0.00 | 95 | 1012.6 |
| 20260831151705 | 56 | 296 | 0.0 | 2.0 | 0.00 | 0.00 | 0.00 | 95 | 1012.6 |
| 20260831150204 | 55 | 256 | 0.0 | 1.0 | 0.00 | 0.00 | 0.00 | 94 | 1012.4 |
| 20260831145704 | 55 | 248 | 0.0 | 2.0 | 0.00 | 0.00 | 0.00 | 94 | 1012.4 |
| 20260831144704 | 55 | 239 | 0.0 | 2.0 | 0.00 | 0.00 | 0.00 | 94 | 1012.5 |
| 20260831143704 | 55 | 210 | 0.0 | 2.0 | 0.00 | 0.00 | 0.00 | 94 | 1012.5 |
| 20260831141215 | 55 | 85 | 0.0 | 1.0 | 0.00 | 0.00 | 0.00 | 94 | 1012.4 |
| 20260831135704 | 55 | 87 | 0.0 | 2.0 | 0.00 | 0.00 | 0.00 | 94 | 1012.5 |
| 20260831135204 | 55 | 84 | 0.0 | 2.0 | 0.00 | 0.00 | 0.00 | 94 | 1012.4 |
| 20260831133704 | 55 | 84 | 0.0 | 2.0 | 0.00 | 0.00 | 0.00 | 94 | 1012.3 |
| 20260831133204 | 55 | 17 | 0.0 | 2.0 | 0.00 | 0.00 | 0.00 | 94 | 1012.3 |
| 20260831132704 | 55 | 17 | 0.0 | 2.0 | 0.00 | 0.00 | 0.00 | 94 | 1012.2 |
| 20260831131204 | 55 | 331 | 0.0 | 2.0 | 0.00 | 0.00 | 0.00 | 94 | 1012.2 |
| 20260831130704 | 55 | 352 | 0.0 | 2.0 | 0.00 | 0.00 | 0.00 | 94 | 1012.2 |
| 20260831125704 | 55 | 332 | 0.0 | 2.0 | 0.00 | 0.00 | 0.00 | 94 | 1012.4 |
| 20260831124204 | 55 | 341 | 0.0 | 2.0 | 0.00 | 0.00 | 0.00 | 94 | 1012.4 |
| 20260831123204 | 56 | 341 | 0.0 | 2.0 | 0.00 | 0.00 | 0.00 | 94 | 1012.6 |
| 20260831120704 | 56 | 11 | 0.0 | 2.0 | 0.00 | 0.00 | 0.00 | 93 | 1012.7 |
| 20260831120204 | 56 | 28 | 0.0 | 2.0 | 0.00 | 0.00 | 0.00 | 93 | 1012.7 |
| 20260831115204 | 56 | 2 | 1.0 | 2.0 | 0.00 | 0.00 | 0.00 | 93 | 1012.7 |
| 20260831114204 | 56 | 296 | 0.0 | 1.0 | 0.00 | 0.00 | 0.00 | 93 | 1012.9 |
| 20260831113703 | 56 | 276 | 0.0 | 2.0 | 0.00 | 0.00 | 0.00 | 93 | 1013.0 |
| 20260831113204 | 56 | 303 | 1.0 | 2.0 | 0.00 | 0.00 | 0.00 | 93 | 1013.0 |
| 20260831112704 | 56 | 303 | 0.0 | 1.0 | 0.00 | 0.00 | 0.00 | 93 | 1013.1 |
| 20260831112203 | 56 | 286 | 0.0 | 1.0 | 0.00 | 0.00 | 0.00 | 93 | 1013.2 |
| 20260831110703 | 56 | 84 | 1.0 | 2.0 | 0.00 | 0.00 | 0.00 | 93 | 1013.1 |
| 20260831105704 | 56 | 271 | 0.0 | 2.0 | 0.00 | 0.00 | 0.00 | 93 | 1013.1 |
| 20260831105204 | 56 | 123 | 0.0 | 1.0 | 0.00 | 0.00 | 0.00 | 92 | 1013.2 |
| 20260831104704 | 55 | 123 | 0.0 | 2.0 | 0.00 | 0.00 | 0.00 | 92 | 1013.2 |
| 20260831103204 | 56 | 71 | 0.0 | 1.0 | 0.00 | 0.00 | 0.00 | 92 | 1013.3 |
| 20260831101204 | 56 | 71 | 0.0 | 0.0 | 0.00 | 0.00 | 0.00 | 92 | 1013.5 |
| 20260831095703 | 56 | 22 | 0.0 | 0.0 | 0.00 | 0.00 | 0.00 | 91 | 1013.8 |
| 20260831085704 | 56 | 348 | 0.0 | 2.0 | 0.00 | 0.00 | 0.00 | 91 | 1014.2 |
| 20260831085204 | 56 | 348 | 0.0 | 2.0 | 0.00 | 0.00 | 0.00 | 90 | 1014.2 |
| 20260831084204 | 56 | 91 | 0.0 | 2.0 | 0.00 | 0.00 | 0.00 | 90 | 1014.2 |
| 20260831080704 | 57 | 133 | 0.0 | 2.0 | 0.00 | 0.00 | 0.00 | 90 | 1014.7 |
| 20260831080204 | 57 | 133 | 0.0 | 2.0 | 0.00 | 0.00 | 0.00 | 90 | 1014.7 |
| 20260831075704 | 57 | 140 | 0.0 | 2.0 | 0.00 | 0.00 | 0.00 | 89 | 1014.7 |
| 20260831075204 | 57 | 144 | 0.0 | 2.0 | 0.00 | 0.00 | 0.00 | 89 | 1014.7 |
| 20260831073704 | 57 | 39 | 0.0 | 2.0 | 0.00 | 0.00 | 0.00 | 88 | 1014.6 |
| 20260831073204 | 57 | 39 | 0.0 | 2.0 | 0.00 | 0.00 | 0.00 | 88 | 1014.7 |
| 20260831070204 | 58 | 34 | 0.0 | 2.0 | 0.00 | 0.00 | 0.00 | 87 | 1015.1 |
| 20260831064704 | 58 | 16 | 0.0 | 2.0 | 0.00 | 0.00 | 0.00 | 86 | 1015.3 |
| 20260831064204 | 58 | 16 | 0.0 | 2.0 | 0.00 | 0.00 | 0.00 | 85 | 1015.3 |
| 20260831063204 | 58 | 20 | 0.0 | 2.0 | 0.00 | 0.00 | 0.00 | 84 | 1015.3 |
| 20260831062704 | 59 | 20 | 0.0 | 2.0 | 0.00 | 0.00 | 0.00 | 84 | 1015.4 |
| 20260831062204 | 59 | 66 | 0.0 | 2.0 | 0.00 | 0.00 | 0.00 | 85 | 1015.5 |
| 20260831060704 | 59 | 110 | 0.0 | 2.0 | 0.00 | 0.00 | 0.00 | 84 | 1015.5 |
| 20260831055204 | 59 | 72 | 0.0 | 2.0 | 0.00 | 0.00 | 0.00 | 82 | 1015.7 |
| 20260831054704 | 59 | 72 | 0.0 | 2.0 | 0.00 | 0.00 | 0.00 | 83 | 1015.7 |
| 20260831053704 | 59 | 72 | 0.0 | 1.0 | 0.00 | 0.00 | 0.00 | 82 | 1015.8 |
| 20260831053204 | 59 | 177 | 0.0 | 2.0 | 0.00 | 0.00 | 0.00 | 81 | 1015.9 |
| 20260831051704 | 60 | 214 | 0.0 | 2.0 | 0.00 | 0.00 | 0.00 | 79 | 1016.1 |
| 20260831050704 | 60 | 88 | 0.0 | 2.0 | 0.00 | 0.00 | 0.00 | 80 | 1016.1 |
| 20260831045704 | 60 | 96 | 0.0 | 2.0 | 0.00 | 0.00 | 0.00 | 78 | 1016.2 |
| 20260831043704 | 60 | 70 | 0.0 | 2.0 | 0.00 | 0.00 | 0.00 | 77 | 1016.3 |
| 20260831042204 | 60 | 113 | 0.0 | 2.0 | 0.00 | 0.00 | 0.00 | 76 | 1016.2 |
| 20260831040704 | 61 | 114 | 0.0 | 2.0 | 0.00 | 0.00 | 0.00 | 75 | 1016.2 |
| 20260831035204 | 61 | 119 | 0.0 | 2.0 | 0.00 | 0.00 | 0.00 | 75 | 1016.2 |
| 20260831034204 | 62 | 26 | 0.0 | 2.0 | 0.00 | 0.00 | 0.00 | 75 | 1016.2 |
| 20260831033704 | 62 | 58 | 0.0 | 2.0 | 0.00 | 0.00 | 0.00 | 76 | 1016.2 |
| 20260831032203 | 62 | 48 | 0.0 | 2.0 | 0.00 | 0.00 | 0.00 | 74 | 1016.2 |
| 20260831031704 | 62 | 48 | 0.0 | 2.0 | 0.00 | 0.00 | 0.00 | 75 | 1016.2 |
| 20260831030703 | 63 | 16 | 1.0 | 3.0 | 0.00 | 0.00 | 0.00 | 72 | 1016.2 |
| 20260831030204 | 63 | 48 | 0.0 | 2.0 | 0.00 | 0.00 | 0.00 | 74 | 1016.2 |
| 20260831025704 | 63 | 48 | 0.0 | 2.0 | 0.00 | 0.00 | 0.00 | 74 | 1016.2 |
| 20260831025204 | 63 | 102 | 0.0 | 2.0 | 0.00 | 0.00 | 0.00 | 74 | 1016.2 |
| 20260831024704 | 63 | 137 | 0.0 | 2.0 | 0.00 | 0.00 | 0.00 | 73 | 1016.3 |
| 20260831023704 | 64 | 179 | 0.0 | 2.0 | 0.00 | 0.00 | 0.00 | 70 | 1016.3 |
| 20260831023204 | 64 | 179 | 0.0 | 2.0 | 0.00 | 0.00 | 0.00 | 70 | 1016.3 |
| 20260831022704 | 64 | 179 | 0.0 | 2.0 | 0.00 | 0.00 | 0.00 | 70 | 1016.3 |
| 20260831022203 | 65 | 179 | 0.0 | 2.0 | 0.00 | 0.00 | 0.00 | 70 | 1016.3 |
| 20260831020704 | 65 | 179 | 0.0 | 2.0 | 0.00 | 0.00 | 0.00 | 70 | 1016.4 |
| 20260831015704 | 66 | 185 | 0.0 | 2.0 | 0.00 | 0.00 | 0.00 | 68 | 1016.4 |
| 20260831015204 | 66 | 185 | 0.0 | 1.0 | 0.00 | 0.00 | 0.00 | 67 | 1016.4 |
| 20260831014704 | 67 | 185 | 0.0 | 2.0 | 0.00 | 0.00 | 0.00 | 66 | 1016.5 |
| 20260831014204 | 67 | 185 | 0.0 | 0.0 | 0.00 | 0.00 | 0.00 | 66 | 1016.4 |
| 20260831013703 | 67 | 185 | 0.0 | 2.0 | 0.00 | 0.00 | 0.00 | 64 | 1016.5 |
| 20260831013204 | 67 | 185 | 0.0 | 2.0 | 0.00 | 0.00 | 0.00 | 64 | 1016.5 |
| 20260831012703 | 68 | 185 | 0.0 | 0.0 | 0.00 | 0.00 | 0.00 | 64 | 1016.6 |
| 20260831010704 | 68 | 208 | 0.0 | 1.0 | 0.00 | 0.00 | 0.00 | 61 | 1016.7 |
| 20260831005703 | 69 | 208 | 0.0 | 2.0 | 0.00 | 0.00 | 0.00 | 59 | 1016.8 |
| 20260831005204 | 69 | 178 | 0.0 | 2.0 | 0.00 | 0.00 | 0.00 | 62 | 1016.8 |
| 20260831004704 | 69 | 221 | 0.0 | 2.0 | 0.00 | 0.00 | 0.00 | 59 | 1016.7 |